Location: Newark
(47.5833°N, 8.1500°E)
Time: 23:48:27
(UTC+00:00)

Vanguard 1 - Pass Details

Date: 27 October 2020
Orbit: 650 x 3833 km, 34.2° (Epoch: 29 November)

Event Time Altitude Azimuth Distance (km) Brightness Sun altitude
Rises 13:39:11 0° 245° (WSW) 7,777 15.7 21.0°
Reaches altitude 10° 13:44:31 10° 241° (WSW) 6,886 15.9 20.4°
Maximum altitude 14:06:40 53° 174° (S) 3,990 13.8 17.9°
Drops below altitude 10° 14:22:57 10° 104° (ESE) 5,242 13.5 15.9°
Sets 14:26:20 0° 99° (E) 5,897 13.7 15.4°
